Simultaneous Nadir Overpasses (SNOs) Predictions

Prediction of SNOs between METOP-B and NOAA-19 Satellite Orbit:

Table of predicted SNOs for the next 14.0 days since TLE Epoch: 9/9/2023
Index Date (METOP-B) Time (METOP-B) Lat,Lon (METOP-B) SZA (METOP-B ) Date (NOAA-19) Time (NOAA-19) Lat,Lon (NOAA-19) SZA (NOAA-19 ) Distance(km) Time Diff (sec)
1 09/12/2023 21:53:22 -80.81, 63.51 101.75 09/12/2023 21:52:06 -80.82, 63.60 101.77 1.57 76
2 09/12/2023 22:44:02 80.82,-128.97 78.29 09/12/2023 22:42:59 80.83,-128.80 78.29 3.08 63
3 09/12/2023 23:34:43 -80.82, 38.35 101.70 09/12/2023 23:34:04 -80.83, 38.41 101.71 1.21 39
4 09/13/2023 00:25:23 80.83,-154.13 78.34 09/13/2023 00:24:57 80.84,-153.98 78.35 2.76 26
5 09/13/2023 01:16:04 -80.83, 13.19 101.65 09/13/2023 01:16:02 -80.84, 13.23 101.64 0.85 2
6 09/13/2023 02:06:44 80.84,-179.30 78.40 09/13/2023 02:06:55 80.84,-179.16 78.41 2.46 11
7 09/13/2023 02:57:25 -80.84, -11.98 101.60 09/13/2023 02:58:00 -80.84, -11.95 101.58 0.50 35
8 09/13/2023 03:48:06 80.83, 155.19 78.40 09/13/2023 03:48:54 80.84, 155.30 78.43 2.15 48



Historial Predications of SNOs between METOP-B and NOAA-19
